Location: Newark
(53.3333°N, 83.7500°E)
Time: 19:23:16
(UTC+00:00)

N. Korean satellite - Pass Details

Date: 28 September 2020
Orbit: 452 x 505 km, 97.2° (Epoch: 28 October)

Event Time Altitude Azimuth Distance (km) Brightness Sun altitude
Rises 22:49:06 0° 30° (NNE) 2,594 11.0 -14.7°
Reaches altitude 10° 22:52:18 10° 60° (ENE) 1,691 10.6 -14.3°
Maximum altitude 22:53:55 13° 87° (E) 1,530 10.4 -14.0°
Drops below altitude 10° 22:55:31 10° 113° (ESE) 1,671 10.1 -13.8°
Sets 22:58:37 0° 144° (SE) 2,529 10.5 -13.4°
